Regional Weather Roundup
Issued by NWS

Home | Current Version | Previous Version | Text Only | Print | Product List | Glossary Off
Versions: 1 2 3 4 5 6 7 8 9 10 11 12 13 14 15 16 17 18 19 20 21 22 23 24 25 26 27 28 29 30 31 32 33 34 35 36 37 38 39 40 41 42 43 44 45 46 47 48 49 50

000
ASUS43 KLMK 261802
RWRKY
KENTUCKY REGIONAL WEATHER ROUNDUP
NATIONAL WEATHER SERVICE LOUISVILLE KY
200 PM EDT WED JUL 26 2017

NOTE "FAIR" INDICATES FEW OR NO CLOUDS BELOW 12,000 FEET
WITH NO SIGNIFICANT WEATHER AND/OR OBSTRUCTIONS TO VISIBILITY.

KYZ001>023-026-027-061>063-070>075-261900-
WESTERN AND SOUTH CENTRAL KENTUCKY

CITY           SKY/WX    TMP DP  RH WIND       PRES   REMARKS
PADUCAH        SUNNY     93  75  55 SW9       30.05F HX 104
HENDERSON      SUNNY     92  79  65 SW6       30.05F HX 108
OWENSBORO      MOSUNNY   91  78  65 SE6       30.06F HX 106
HOPKINSVILLE   MOSUNNY   91  74  56 SW7       30.08F HX 100
BOWLING GREEN  PTSUNNY   92  72  51 CALM      30.09F HX  99
GLASGOW        NOT AVBL
$$

KYZ024-025-028>034-038-045-046-053-261900-
NORTH CENTRAL KENTUCKY

CITY           SKY/WX    TMP DP  RH WIND       PRES   REMARKS
LOUISVILLE/SDF MOSUNNY   89  69  51 VRB5      30.09F HX  93
LOUISVILLE/LOU PTSUNNY   88  70  55 S8        30.10F HX  93
FORT KNOX      MOSUNNY   86  72  62 E6        30.08F HX  92
$$

KYZ035>037-039>044-047>052-055>060-089>105-261900-
NORTHEAST KENTUCKY

CITY           SKY/WX    TMP DP  RH WIND       PRES   REMARKS
LEXINGTON      SUNNY     85  66  53 VRB5      30.13F
COVINGTON      MOSUNNY   83  66  56 CALM      30.12F
FRANKFORT      MOSUNNY   85  67  54 SE6       30.11F
$$

KYZ054-064>069-076>088-106>120-261900-
SOUTHEAST KENTUCKY

CITY           SKY/WX    TMP DP  RH WIND       PRES   REMARKS
JACKSON        SUNNY     83  66  56 CALM      30.16F
LONDON         CLOUDY    85  64  49 CALM      30.15F
SOMERSET       MOSUNNY   86  63  45 S3        30.14F
MIDDLESBORO    CLOUDY    85  68  55 CALM      30.14F
MONTICELLO     CLEAR     87  73  62 N10       30.15F HX  94
$$





USA.gov is the U.S. government's official web portal to all federal, state and local government web resources and services.